This is the latest recevied weather packets stored in our database for station/object 9D9-WX. If no packets are shown the sender has not sent any weather packets the latest 10 day(s).
| Time | Temp. | Humidity | Pressure | Rain* | Wind** | Luminosity | Snow |
|---|---|---|---|---|---|---|---|
| 1777795226 | 2.22° C | 63% | 984 hPa | 0 mm | - | - | - |
| 1777794310 | 1.67° C | 66% | 984.7 hPa | 0 mm | - | - | - |
| 1777793427 | 1.67° C | 66% | 984.7 hPa | 0 mm | - | - | - |
| 1777792510 | 1.67° C | 66% | 984.7 hPa | 0 mm | - | - | - |
| 1777791631 | 1.67° C | 66% | 984.7 hPa | 0 mm | - | - | - |
| 1777790709 | 2.22° C | 60% | 985.6 hPa | 0 mm | - | - | - |
| 1777789822 | 2.22° C | 64% | 985.6 hPa | 0 mm | - | - | - |
| 1777788910 | 2.22° C | 64% | 985.6 hPa | 0 mm | - | - | - |
| 1777788033 | 2.22° C | 64% | 985.6 hPa | 0 mm | - | - | - |
| 1777787110 | 2.22° C | 63% | 986.1 hPa | 0 mm | - | - | - |
| 1777785309 | 1.67° C | 64% | 986.3 hPa | 0 mm | - | - | - |
| 1777784428 | 2.22° C | 64% | 986.3 hPa | 0 mm | - | - | - |
| 1777783509 | 2.22° C | 62% | 986.6 hPa | 0 mm | - | - | - |
| 1777782627 | 2.22° C | 63% | 986.1 hPa | 0 mm | - | - | - |
| 1777781710 | 2.78° C | 63% | 986.1 hPa | 0 mm | - | - | - |
| 1777780832 | 2.78° C | 63% | 986.1 hPa | 0 mm | - | - | - |
| 1777779909 | 2.78° C | 63% | 987 hPa | 0 mm | - | - | - |
| 1777779028 | 2.78° C | 63% | 987.2 hPa | 0 mm | - | - | - |
| 1777778109 | 3.33° C | 63% | 987.3 hPa | 0 mm | - | - | - |
| 1777777231 | 3.33° C | 63% | 987.3 hPa | 0 mm | - | - | - |
| 1777776309 | 3.33° C | 60% | 987.8 hPa | 0 mm | - | - | - |
| 1777775427 | 3.89° C | 64% | 987.7 hPa | 0 mm | - | - | - |
| 1777774510 | 3.89° C | 64% | 987.7 hPa | 0 mm | - | - | - |
| 1777773631 | 3.89° C | 64% | 987.7 hPa | 0 mm | - | - | - |
| 1777772709 | 4.44° C | 62% | 987.1 hPa | 0 mm | - | - | - |
* Rain latest hour (hover to see other rain measurements)
** Current wind speed in m/s (hover to see current wind gust speed)